Location: Unspecified
(0.0000°N, 0.0000°E)
Time: 04:41:50
(UTC+02:00)

GPS 2-12 Rocket1 - Visible Passes

Search period start: 30 March 2017 00:00
Search period end: 09 April 2017 00:00
Orbit: 587 x 653 km, 20.0° (Epoch: 28 March)

Date Brightness Start Highest point End Pass type
(mag) Time Alt. Az. Time Alt. Az. Time Alt. Az.
30 Mar 5.7 05:42:46 15° ESE 05:42:46 15° ESE 05:43:34 10° ESE visible
30 Mar 4.3 07:19:48 14° WSW 07:22:39 26° SSW 07:26:24 10° SE visible
31 Mar 5.2 05:58:19 20° SE 05:58:19 20° SE 05:59:45 10° SE visible
31 Mar 4.9 07:36:15 10° WSW 07:39:05 16° SSW 07:41:55 10° SSE visible
01 Apr 5.0 06:13:51 20° SSE 06:13:51 20° SSE 06:15:39 10° SE visible
02 Apr 5.0 06:29:20 17° S 06:29:20 17° S 06:31:15 10° SSE visible
03 Apr 5.2 06:44:47 12° SSW 06:44:47 12° SSW 06:46:19 10° S visible
07 Apr 5.6 21:42:35 10° N 21:43:59 12° N 21:43:59 12° N visible
08 Apr 5.4 21:57:38 10° NNW 21:59:16 15° N 21:59:16 15° N visible
